Grand Junction, CO

9:15 AM MDT on July 25, 2017 (GMT -0600)
Walker

Weather History for KGJT - May, 2013

Change the Weather History Date:

Thursday, May 16, 2013

  Actual Average Record
Temperature  
Mean Temperature 68 °F 62 °F  
Max Temperature 82 °F 76 °F 92 °F (1964)
Min Temperature 53 °F 47 °F 34 °F (1910)
Degree Days  
Heating Degree Days 0 5  
Month to date heating degree days 112 107  
Since 1 July heating degree days 6003 5541  
Cooling Degree Days 3 1  
Month to date cooling degree days 21 13  
Year to date cooling degree days 21 16  
Growing Degree Days 17 (Base 50)    
Moisture  
Dew Point 35 °F    
Average Humidity 42    
Maximum Humidity 71    
Minimum Humidity 13    
Precipitation  
Precipitation 0.00 in 0.03 in 0.96 in (1983)
Month to date precipitation 0.59 0.50  
Year to date precipitation 3.13 3.45  
Snow  
Snow 0.00 in 0.00 in T in (2016)
Month to date snowfall 0.0 0.1  
Since 1 July snowfall 24.6 19.1  
Snow Depth 0.00 in    
Sea Level Pressure  
Sea Level Pressure 29.70 in    
Wind  
Wind Speed 7 mph (SE)    
Max Wind Speed 20 mph    
Max Gust Speed 26 mph    
Visibility 10 miles    
Events      
T = Trace of Precipitation, MM = Missing Value Source: NWS Daily Summary

Daily Weather History Graph

Daily Weather History Graph

Search for Another Location

Airport or City:

Trip Planner

Search our weather history database for the weather conditions in past years. The results will help you decide how hot, cold, wet, or windy it might be!

Date:

Astronomy

May. 16, 2013 Rise Set
Actual Time 5:59 AM MDT 8:21 PM MDT
Civil Twilight 5:29 AM MDT 8:51 PM MDT
Nautical Twilight 4:52 AM MDT 9:29 PM MDT
Astronomical Twilight 4:11 AM MDT 10:10 PM MDT
Moon 11:35 AM MDT (5/16) 12:44 AM MDT (5/16)
Length of Visible Light 15h 22m
Length of Day
14h 21m
Waxing Crescent, 36% of the Moon is Illuminated
May 16
Waxing Crescent
May 17
First Quarter
May 24
Full
May 31
Last Quarter
Jun 8
New

Hourly Weather History & Observations

Time (MDT) Temp. Dew Point Humidity Pressure Visibility Wind Dir Wind Speed Gust Speed Precip Events Conditions
12:53 AM 63.0 °F 41.0 °F 45% 29.73 in 10.0 mi ENE 5.8 mph 17.3 mph N/A   Clear
1:53 AM 61.0 °F 41.0 °F 48% 29.72 in 10.0 mi SSE 9.2 mph - N/A   Clear
2:53 AM 53.1 °F 42.1 °F 66% 29.74 in 10.0 mi ENE 4.6 mph - N/A   Clear
3:53 AM 57.0 °F 42.1 °F 57% 29.73 in 10.0 mi South 5.8 mph - N/A   Clear
4:53 AM 55.9 °F 42.1 °F 60% 29.74 in 10.0 mi SE 5.8 mph - N/A   Clear
5:53 AM 54.0 °F 42.1 °F 64% 29.78 in 10.0 mi ESE 11.5 mph - N/A   Clear
6:53 AM 54.0 °F 44.1 °F 69% 29.80 in 10.0 mi Calm Calm - N/A   Clear
7:53 AM 59.0 °F 44.1 °F 58% 29.81 in 10.0 mi SSE 8.1 mph - N/A   Clear
8:53 AM 64.0 °F 42.1 °F 45% 29.80 in 10.0 mi SE 11.5 mph - N/A   Clear
9:53 AM 66.0 °F 41.0 °F 40% 29.79 in 10.0 mi SSE 9.2 mph - N/A   Clear
10:53 AM 71.1 °F 41.0 °F 34% 29.77 in 10.0 mi Variable 3.5 mph - N/A   Clear
11:53 AM 73.9 °F 37.0 °F 26% 29.74 in 10.0 mi Variable 3.5 mph - N/A   Clear
12:53 PM 78.1 °F 35.1 °F 21% 29.70 in 10.0 mi Calm Calm - N/A   Clear
1:53 PM 81.0 °F 34.0 °F 18% 29.68 in 10.0 mi NW 8.1 mph - N/A   Clear
2:53 PM 80.1 °F 33.1 °F 18% 29.68 in 10.0 mi SE 8.1 mph - N/A   Clear
3:53 PM 80.6 °F 30.2 °F 16% 29.82 in 10.0 mi Calm Calm - N/A   Scattered Clouds
4:53 PM 81.0 °F 28.0 °F 14% 29.61 in 10.0 mi Calm Calm - N/A   Clear
5:53 PM 81.0 °F 25.0 °F 13% 29.61 in 10.0 mi SSW 12.7 mph 17.3 mph N/A   Clear
6:53 PM 79.0 °F 28.0 °F 15% 29.61 in 10.0 mi SSW 15.0 mph - N/A   Mostly Cloudy
7:53 PM 78.1 °F 28.0 °F 16% 29.60 in 10.0 mi SSE 3.5 mph - N/A   Clear
8:53 PM 73.9 °F 30.0 °F 20% 29.61 in 10.0 mi SSW 5.8 mph - N/A   Clear
9:53 PM 64.9 °F 32.0 °F 29% 29.64 in 10.0 mi ENE 3.5 mph - N/A   Clear
10:53 PM 66.9 °F 28.9 °F 24% 29.63 in 10.0 mi East 5.8 mph - N/A   Clear
11:53 PM 66.0 °F 27.0 °F 23% 29.62 in 10.0 mi ESE 9.2 mph - N/A   Clear